• In Hungary
  • List of Countries
  • For 7 days
  • Water Temperature
  • Satellite Maps
  • Weather Map
  • News
  • Weather Widgets
  • user-avatar
    Login

    Hourly Weather Kandi

    Today, 21 June, Thursday

    Time Temperature Precipitation Wind Pressure Humidity
    00:00 +29°C° 0 mm 3 mps 738 mmHg 74%
    01:00 +28°C° 1 mm 3 mps 738 mmHg 77%
    02:00 +28°C° 1 mm 2 mps 738 mmHg 79%
    03:00 +27°C° 1 mm 2 mps 738 mmHg 82%
    04:00 +27°C° 0.1 mm 2 mps 738 mmHg 83%
    05:00 +27°C° 0.1 mm 2 mps 738 mmHg 84%
    06:00 +27°C° 0.1 mm 2 mps 738 mmHg 85%
    07:00 +28°C° 0.6 mm 2 mps 738 mmHg 79%
    08:00 +29°C° 0.6 mm 2 mps 738 mmHg 73%
    09:00 +31°C° 0.6 mm 2 mps 739 mmHg 67%
    10:00 +31°C° 2 mm 2 mps 739 mmHg 67%
    11:00 +31°C° 2 mm 2 mps 738 mmHg 67%
    12:00 +31°C° 2 mm 2 mps 738 mmHg 67%
    13:00 +31°C° 0.4 mm 2 mps 738 mmHg 67%
    14:00 +30°C° 0.4 mm 2 mps 737 mmHg 68%
    15:00 +30°C° 0.4 mm 2 mps 737 mmHg 68%
    16:00 +30°C° 0 mm 2 mps 737 mmHg 69%
    17:00 +30°C° 0 mm 2 mps 737 mmHg 70%
    18:00 +29°C° 0 mm 2 mps 737 mmHg 70%
    19:00 +29°C° 0 mm 2 mps 738 mmHg 74%
    20:00 +28°C° 0 mm 2 mps 738 mmHg 77%
    21:00 +27°C° 0 mm 2 mps 739 mmHg 80%
    22:00 +27°C° 0 mm 2 mps 739 mmHg 81%
    23:00 +27°C° 0 mm 2 mps 739 mmHg 82%

    Tomorrow, 22 June, Friday

    Time Temperature Precipitation Wind Pressure Humidity
    00:00 +26°C° 0 mm 2 mps 739 mmHg 83%
    01:00 +26°C° 0 mm 2 mps 739 mmHg 84%
    02:00 +26°C° 0 mm 2 mps 738 mmHg 84%
    03:00 +26°C° 0 mm 2 mps 738 mmHg 85%
    04:00 +26°C° 0 mm 2 mps 738 mmHg 85%
    05:00 +25°C° 0 mm 3 mps 738 mmHg 85%
    06:00 +25°C° 0 mm 3 mps 738 mmHg 85%
    07:00 +27°C° 0 mm 3 mps 739 mmHg 78%
    08:00 +28°C° 0 mm 3 mps 739 mmHg 72%
    09:00 +30°C° 0 mm 4 mps 739 mmHg 66%
    10:00 +32°C° 0 mm 4 mps 739 mmHg 59%
    11:00 +34°C° 0 mm 3 mps 739 mmHg 52%
    12:00 +36°C° 0 mm 3 mps 739 mmHg 45%
    13:00 +36°C° 0 mm 3 mps 738 mmHg 44%
    14:00 +37°C° 0 mm 3 mps 737 mmHg 42%
    15:00 +37°C° 0 mm 3 mps 737 mmHg 41%
    16:00 +36°C° 0 mm 3 mps 737 mmHg 44%
    17:00 +35°C° 0 mm 3 mps 737 mmHg 48%
    18:00 +34°C° 0 mm 2 mps 737 mmHg 51%
    19:00 +33°C° 0.2 mm 3 mps 737 mmHg 56%
    20:00 +31°C° 0.2 mm 3 mps 738 mmHg 61%
    21:00 +29°C° 0.2 mm 3 mps 739 mmHg 66%
    22:00 +29°C° 0 mm 3 mps 739 mmHg 69%
    23:00 +28°C° 0 mm 3 mps 739 mmHg 71%

    Day after tomorrow, 23 June, Saturday

    Time Temperature Precipitation Wind Pressure Humidity
    00:00 +28°C° 0 mm 4 mps 739 mmHg 74%
    01:00 +27°C° 0 mm 4 mps 739 mmHg 76%
    02:00 +27°C° 0 mm 4 mps 738 mmHg 78%
    03:00 +27°C° 0 mm 4 mps 738 mmHg 80%
    04:00 +27°C° 0 mm 3 mps 738 mmHg 80%
    05:00 +27°C° 0 mm 3 mps 739 mmHg 79%
    06:00 +26°C° 0 mm 3 mps 739 mmHg 79%
    07:00 +28°C° 0 mm 3 mps 740 mmHg 74%
    08:00 +29°C° 0 mm 4 mps 740 mmHg 69%
    09:00 +30°C° 0 mm 4 mps 740 mmHg 63%
    10:00 +32°C° 0 mm 4 mps 740 mmHg 59%
    11:00 +33°C° 0 mm 4 mps 739 mmHg 55%
    12:00 +34°C° 0 mm 3 mps 739 mmHg 51%
    13:00 +35°C° 0 mm 3 mps 738 mmHg 48%
    14:00 +36°C° 0 mm 3 mps 737 mmHg 45%
    15:00 +37°C° 0 mm 3 mps 736 mmHg 42%
    16:00 +36°C° 0 mm 3 mps 736 mmHg 45%
    17:00 +35°C° 0 mm 2 mps 736 mmHg 47%
    18:00 +34°C° 0 mm 2 mps 736 mmHg 50%
    19:00 +32°C° 0.6 mm 2 mps 737 mmHg 57%
    20:00 +30°C° 0.6 mm 2 mps 737 mmHg 63%
    21:00 +29°C° 0.6 mm 3 mps 738 mmHg 70%
    22:00 +29°C° 0.4 mm 3 mps 738 mmHg 73%
    23:00 +28°C° 0.4 mm 2 mps 738 mmHg 77%

    24 June, Sunday

    Time Temperature Precipitation Wind Pressure Humidity
    00:00 +27°C° 0.4 mm 2 mps 739 mmHg 81%
    01:00 +27°C° 0.4 mm 2 mps 738 mmHg 82%
    02:00 +27°C° 0.4 mm 2 mps 738 mmHg 83%
    03:00 +26°C° 0.4 mm 2 mps 738 mmHg 84%
    04:00 +26°C° 0.1 mm 2 mps 738 mmHg 84%
    05:00 +26°C° 0.1 mm 3 mps 738 mmHg 85%
    06:00 +26°C° 0.1 mm 3 mps 738 mmHg 85%
    07:00 +27°C° 0 mm 3 mps 738 mmHg 80%
    08:00 +28°C° 0 mm 3 mps 739 mmHg 76%
    09:00 +29°C° 0 mm 3 mps 739 mmHg 71%
    10:00 +31°C° 0.1 mm 3 mps 739 mmHg 63%
    11:00 +33°C° 0.1 mm 3 mps 739 mmHg 55%
    12:00 +35°C° 0.1 mm 3 mps 739 mmHg 48%
    13:00 +35°C° 0.5 mm 3 mps 738 mmHg 49%
    14:00 +35°C° 0.5 mm 2 mps 737 mmHg 50%
    15:00 +34°C° 0.5 mm 2 mps 736 mmHg 52%
    16:00 +34°C° 0 mm 2 mps 736 mmHg 54%
    17:00 +32°C° 0 mm 2 mps 737 mmHg 57%
    18:00 +31°C° 0 mm 2 mps 737 mmHg 60%
    19:00 +30°C° 0 mm 2 mps 737 mmHg 64%
    20:00 +30°C° 0 mm 2 mps 737 mmHg 68%
    21:00 +29°C° 0 mm 2 mps 738 mmHg 72%
    22:00 +28°C° 0.1 mm 2 mps 738 mmHg 73%
    23:00 +28°C° 0.1 mm 2 mps 738 mmHg 75%

    25 June, Monday

    Time Temperature Precipitation Wind Pressure Humidity
    00:00 +27°C° 0.1 mm 1 mps 738 mmHg 77%
    01:00 +27°C° 0.2 mm 1 mps 738 mmHg 79%
    02:00 +27°C° 0.2 mm 1 mps 737 mmHg 81%
    03:00 +26°C° 0.2 mm 1 mps 737 mmHg 82%
    04:00 +26°C° 0.1 mm 2 mps 737 mmHg 83%
    05:00 +26°C° 0.1 mm 2 mps 738 mmHg 84%
    06:00 +26°C° 0.1 mm 2 mps 738 mmHg 85%
    07:00 +28°C° 0 mm 2 mps 738 mmHg 77%
    08:00 +30°C° 0 mm 2 mps 739 mmHg 68%
    09:00 +32°C° 0 mm 2 mps 739 mmHg 59%
    10:00 +36°C° 0 mm 2 mps 739 mmHg 50%
    11:00 +37°C° 0 mm 1 mps 738 mmHg 42%
    12:00 +41°C° 0 mm 1 mps 738 mmHg 34%
    13:00 +40°C° 0 mm 1 mps 737 mmHg 35%
    14:00 +39°C° 0 mm 1 mps 736 mmHg 37%
    15:00 +37°C° 0 mm 1 mps 735 mmHg 38%
    16:00 +36°C° 0 mm 1 mps 735 mmHg 40%
    17:00 +36°C° 0 mm 1 mps 736 mmHg 42%
    18:00 +35°C° 0 mm 1 mps 736 mmHg 44%
    19:00 +34°C° 0.2 mm 1 mps 736 mmHg 47%
    20:00 +33°C° 0.2 mm 1 mps 737 mmHg 50%
    21:00 +32°C° 0.2 mm 1 mps 737 mmHg 53%
    22:00 +31°C° 0.6 mm 2 mps 737 mmHg 60%
    23:00 +30°C° 0.6 mm 2 mps 737 mmHg 67%

    26 June, Tuesday

    Time Temperature Precipitation Wind Pressure Humidity
    00:00 +29°C° 0.6 mm 2 mps 737 mmHg 73%
    01:00 +28°C° 0.1 mm 2 mps 737 mmHg 75%
    02:00 +28°C° 0.1 mm 2 mps 736 mmHg 77%
    03:00 +28°C° 0.1 mm 2 mps 736 mmHg 79%
    04:00 +27°C° 0.1 mm 3 mps 736 mmHg 80%
    05:00 +27°C° 0.1 mm 3 mps 736 mmHg 80%
    06:00 +27°C° 0.1 mm 3 mps 737 mmHg 81%
    07:00 +27°C° 0.4 mm 3 mps 737 mmHg 81%
    08:00 +27°C° 0.4 mm 3 mps 738 mmHg 81%
    09:00 +27°C° 0.4 mm 2 mps 739 mmHg 82%
    10:00 +28°C° 0.3 mm 2 mps 738 mmHg 77%
    11:00 +29°C° 0.3 mm 2 mps 738 mmHg 73%
    12:00 +30°C° 0.3 mm 2 mps 737 mmHg 69%
    13:00 +30°C° 0.5 mm 2 mps 737 mmHg 69%
    14:00 +30°C° 0.5 mm 2 mps 736 mmHg 69%
    15:00 +30°C° 0.5 mm 2 mps 736 mmHg 70%
    16:00 +30°C° 0 mm 2 mps 736 mmHg 71%
    17:00 +29°C° 0 mm 3 mps 736 mmHg 72%
    18:00 +29°C° 0 mm 3 mps 736 mmHg 74%
    19:00 +28°C° 0.2 mm 3 mps 736 mmHg 76%
    20:00 +27°C° 0.2 mm 2 mps 737 mmHg 79%
    21:00 +27°C° 0.2 mm 2 mps 737 mmHg 82%
    22:00 +26°C° 1 mm 2 mps 737 mmHg 84%
    23:00 +26°C° 1 mm 2 mps 736 mmHg 86%
    Show more